Year,Month,Day,Hour,Minute,Value (Times are PST for temperature in C)
2012,07,26,00,00,15.30
2012,07,26,00,01,15.30
2012,07,26,00,02,15.30
2012,07,26,00,03,15.30
2012,07,26,00,04,15.30
2012,07,26,00,05,15.30
2012,07,26,00,06,15.30
2012,07,26,00,07,15.30
2012,07,26,00,08,15.30
2012,07,26,00,09,15.30
2012,07,26,00,10,15.30
2012,07,26,00,11,15.40
2012,07,26,00,12,15.40
2012,07,26,00,13,15.40
2012,07,26,00,14,15.40
2012,07,26,00,15,15.40
2012,07,26,00,16,15.40
2012,07,26,00,17,15.40
2012,07,26,00,18,15.40
2012,07,26,00,19,15.40
2012,07,26,00,20,15.40
2012,07,26,00,21,15.40
2012,07,26,00,22,15.40
2012,07,26,00,23,15.30
2012,07,26,00,24,15.30
2012,07,26,00,25,15.30
2012,07,26,00,26,15.30
2012,07,26,00,27,15.30
2012,07,26,00,28,15.30
2012,07,26,00,29,15.30
2012,07,26,00,30,15.20
2012,07,26,00,31,15.20
2012,07,26,00,32,15.20
2012,07,26,00,33,15.20
2012,07,26,00,34,15.20
2012,07,26,00,35,15.20
2012,07,26,00,36,15.20
2012,07,26,00,37,15.10
2012,07,26,00,38,15.10
2012,07,26,00,39,15.10
2012,07,26,00,40,15.00
2012,07,26,00,41,14.90
2012,07,26,00,42,14.90
2012,07,26,00,43,14.90
2012,07,26,00,44,14.80
2012,07,26,00,45,14.80
2012,07,26,00,46,14.80
2012,07,26,00,47,14.80
2012,07,26,00,48,14.80
2012,07,26,00,49,14.70
2012,07,26,00,50,14.70
2012,07,26,00,51,14.70
2012,07,26,00,52,14.60
2012,07,26,00,53,14.60
2012,07,26,00,54,14.60
2012,07,26,00,55,14.50
2012,07,26,00,56,14.50
2012,07,26,00,57,14.40
2012,07,26,00,58,14.40
2012,07,26,00,59,14.40
2012,07,26,01,00,14.40
2012,07,26,01,01,14.40
2012,07,26,01,02,14.30
2012,07,26,01,03,14.30
2012,07,26,01,04,14.30
2012,07,26,01,05,14.30
2012,07,26,01,06,14.30
2012,07,26,01,07,14.30
2012,07,26,01,08,14.30
2012,07,26,01,09,14.30
2012,07,26,01,10,14.30
2012,07,26,01,11,14.20
2012,07,26,01,12,14.20
2012,07,26,01,13,14.20
2012,07,26,01,14,14.10
2012,07,26,01,15,14.10
2012,07,26,01,16,14.10
2012,07,26,01,17,14.00
2012,07,26,01,18,14.00
2012,07,26,01,19,14.00
2012,07,26,01,20,13.90
2012,07,26,01,21,13.90
2012,07,26,01,22,13.90
2012,07,26,01,23,13.90
2012,07,26,01,24,13.90
2012,07,26,01,25,13.90
2012,07,26,01,26,13.90
2012,07,26,01,27,13.90
2012,07,26,01,28,13.90
2012,07,26,01,29,14.00
2012,07,26,01,30,14.00
2012,07,26,01,31,14.00
2012,07,26,01,32,14.10
2012,07,26,01,33,14.10
2012,07,26,01,34,14.10
2012,07,26,01,35,14.10
2012,07,26,01,36,14.10
2012,07,26,01,37,14.10
2012,07,26,01,38,14.10
2012,07,26,01,39,14.00
2012,07,26,01,40,14.00
2012,07,26,01,41,14.00
2012,07,26,01,42,13.90
2012,07,26,01,43,13.90
2012,07,26,01,44,13.80
2012,07,26,01,45,13.80
2012,07,26,01,46,13.80
2012,07,26,01,47,13.70
2012,07,26,01,48,13.70
2012,07,26,01,49,13.60
2012,07,26,01,50,13.60
2012,07,26,01,51,13.50
2012,07,26,01,52,13.50
2012,07,26,01,53,13.40
2012,07,26,01,54,13.40
2012,07,26,01,55,13.30
2012,07,26,01,56,13.30
2012,07,26,01,57,13.30
2012,07,26,01,58,13.30
2012,07,26,01,59,13.30
2012,07,26,02,00,13.30
2012,07,26,02,01,13.20
2012,07,26,02,02,13.20
2012,07,26,02,03,13.20
2012,07,26,02,04,13.20
2012,07,26,02,05,13.20
2012,07,26,02,06,13.20
2012,07,26,02,07,13.20
2012,07,26,02,08,13.20
2012,07,26,02,09,13.30
2012,07,26,02,10,13.30
2012,07,26,02,11,13.30
2012,07,26,02,12,13.30
2012,07,26,02,13,13.20
2012,07,26,02,14,13.20
2012,07,26,02,15,13.10
2012,07,26,02,16,13.10
2012,07,26,02,17,13.00
2012,07,26,02,18,13.00
2012,07,26,02,19,12.90
2012,07,26,02,20,12.90
2012,07,26,02,21,12.90
2012,07,26,02,22,12.80
2012,07,26,02,23,12.80
2012,07,26,02,24,12.80
2012,07,26,02,25,12.70
2012,07,26,02,26,12.70
2012,07,26,02,27,12.70
2012,07,26,02,28,12.60
2012,07,26,02,29,12.60
2012,07,26,02,30,12.60
2012,07,26,02,31,12.60
2012,07,26,02,32,12.50
2012,07,26,02,33,12.50
2012,07,26,02,34,12.40
2012,07,26,02,35,12.40
2012,07,26,02,36,12.30
2012,07,26,02,37,12.30
2012,07,26,02,38,12.30
2012,07,26,02,39,12.20
2012,07,26,02,40,12.20
2012,07,26,02,41,12.20
2012,07,26,02,42,12.20
2012,07,26,02,43,12.20
2012,07,26,02,44,12.10
2012,07,26,02,45,12.10
2012,07,26,02,46,12.10
2012,07,26,02,47,12.10
2012,07,26,02,48,12.10
2012,07,26,02,49,12.10
2012,07,26,02,50,12.10
2012,07,26,02,51,12.10
2012,07,26,02,52,12.10
2012,07,26,02,53,12.10
2012,07,26,02,54,12.20
2012,07,26,02,55,12.20
2012,07,26,02,56,12.20
2012,07,26,02,57,12.20
2012,07,26,02,58,12.20
2012,07,26,02,59,12.10
2012,07,26,03,00,12.10
2012,07,26,03,01,12.10
2012,07,26,03,02,12.10
2012,07,26,03,03,12.10
2012,07,26,03,04,12.10
2012,07,26,03,05,12.10
2012,07,26,03,06,12.10
2012,07,26,03,07,12.10
2012,07,26,03,08,12.10
2012,07,26,03,09,12.10
2012,07,26,03,10,12.10
2012,07,26,03,11,12.10
2012,07,26,03,12,12.10
2012,07,26,03,13,12.10
2012,07,26,03,14,12.10
2012,07,26,03,15,12.10
2012,07,26,03,16,12.10
2012,07,26,03,17,12.00
2012,07,26,03,18,12.00
2012,07,26,03,19,12.00
2012,07,26,03,20,11.90
2012,07,26,03,21,11.90
2012,07,26,03,22,11.90
2012,07,26,03,23,11.90
2012,07,26,03,24,11.90
2012,07,26,03,25,11.90
2012,07,26,03,26,11.90
2012,07,26,03,27,11.90
2012,07,26,03,28,12.00
2012,07,26,03,29,12.00
2012,07,26,03,30,12.00
2012,07,26,03,31,12.00
2012,07,26,03,32,12.00
2012,07,26,03,33,12.00
2012,07,26,03,34,12.00
2012,07,26,03,35,12.00
2012,07,26,03,36,12.00
2012,07,26,03,37,12.00
2012,07,26,03,38,12.00
2012,07,26,03,39,12.00
2012,07,26,03,40,12.10
2012,07,26,03,41,12.10
2012,07,26,03,42,12.10
2012,07,26,03,43,12.10
2012,07,26,03,44,12.10
2012,07,26,03,45,12.10
2012,07,26,03,46,12.10
2012,07,26,03,47,12.10
2012,07,26,03,48,12.10
2012,07,26,03,49,12.10
2012,07,26,03,50,12.10
2012,07,26,03,51,12.10
2012,07,26,03,52,12.10
2012,07,26,03,53,12.10
2012,07,26,03,54,12.10
2012,07,26,03,55,12.10
2012,07,26,03,56,12.10
2012,07,26,03,57,12.10
2012,07,26,03,58,12.10
2012,07,26,03,59,12.10
2012,07,26,04,00,12.10
2012,07,26,04,01,12.10
2012,07,26,04,02,12.20
2012,07,26,04,03,12.20
2012,07,26,04,04,12.20
2012,07,26,04,05,12.20
2012,07,26,04,06,12.20
2012,07,26,04,07,12.20
2012,07,26,04,08,12.20
2012,07,26,04,09,12.20
2012,07,26,04,10,12.20
2012,07,26,04,11,12.20
2012,07,26,04,12,12.20
2012,07,26,04,13,12.20
2012,07,26,04,14,12.20
2012,07,26,04,15,12.30
2012,07,26,04,16,12.30
2012,07,26,04,17,12.30
2012,07,26,04,18,12.30
2012,07,26,04,19,12.40
2012,07,26,04,20,12.40
2012,07,26,04,21,12.40
2012,07,26,04,22,12.40
2012,07,26,04,23,12.40
2012,07,26,04,24,12.40
2012,07,26,04,25,12.40
2012,07,26,04,26,12.40
2012,07,26,04,27,12.40
2012,07,26,04,28,12.40
2012,07,26,04,29,12.40
2012,07,26,04,30,12.40
2012,07,26,04,31,12.40
2012,07,26,04,32,12.30
2012,07,26,04,33,12.30
2012,07,26,04,34,12.30
2012,07,26,04,35,12.30
2012,07,26,04,36,12.30
2012,07,26,04,37,12.30
2012,07,26,04,38,12.30
2012,07,26,04,39,12.30
2012,07,26,04,40,12.30
2012,07,26,04,41,12.20
2012,07,26,04,42,12.20
2012,07,26,04,43,12.20
2012,07,26,04,44,12.20
2012,07,26,04,45,12.20
2012,07,26,04,46,12.30
2012,07,26,04,47,12.30
2012,07,26,04,48,12.30
2012,07,26,04,49,12.30
2012,07,26,04,50,12.30
2012,07,26,04,51,12.30
2012,07,26,04,52,12.30
2012,07,26,04,53,12.30
2012,07,26,04,54,12.30
2012,07,26,04,55,12.30
2012,07,26,04,56,12.30
2012,07,26,04,57,12.40
2012,07,26,04,58,12.30
2012,07,26,04,59,12.40
2012,07,26,05,00,12.30
2012,07,26,05,01,12.30
2012,07,26,05,02,12.30
2012,07,26,05,03,12.30
2012,07,26,05,04,12.30
2012,07,26,05,05,12.30
2012,07,26,05,06,12.30
2012,07,26,05,07,12.30
2012,07,26,05,08,12.30
2012,07,26,05,09,12.30
2012,07,26,05,10,12.30
2012,07,26,05,11,12.30
2012,07,26,05,12,12.30
2012,07,26,05,13,12.30
2012,07,26,05,14,12.30
2012,07,26,05,15,12.30
2012,07,26,05,16,12.30
2012,07,26,05,17,12.30
2012,07,26,05,18,12.20
2012,07,26,05,19,12.20
2012,07,26,05,20,12.20
2012,07,26,05,21,12.20
2012,07,26,05,22,12.20
2012,07,26,05,23,12.20
2012,07,26,05,24,12.20
2012,07,26,05,25,12.20
2012,07,26,05,26,12.10
2012,07,26,05,27,12.10
2012,07,26,05,28,12.10
2012,07,26,05,29,12.10
2012,07,26,05,30,12.10
2012,07,26,05,31,12.00
2012,07,26,05,32,12.00
2012,07,26,05,33,12.00
2012,07,26,05,34,12.00
2012,07,26,05,35,11.90
2012,07,26,05,36,11.90
2012,07,26,05,37,11.90
2012,07,26,05,38,11.90
2012,07,26,05,39,11.90
2012,07,26,05,40,11.90
2012,07,26,05,41,11.80
2012,07,26,05,42,11.80
2012,07,26,05,43,11.80
2012,07,26,05,44,11.80
2012,07,26,05,45,11.80
2012,07,26,05,46,11.80
2012,07,26,05,47,11.80
2012,07,26,05,48,11.80
2012,07,26,05,49,11.80
2012,07,26,05,50,11.80
2012,07,26,05,51,11.80
2012,07,26,05,52,11.70
2012,07,26,05,53,11.70
2012,07,26,05,54,11.70
2012,07,26,05,55,11.70
2012,07,26,05,56,11.70
2012,07,26,05,57,11.70
2012,07,26,05,58,11.80
2012,07,26,05,59,11.80
2012,07,26,06,00,11.80
2012,07,26,06,01,11.80
2012,07,26,06,02,11.80
2012,07,26,06,03,11.80
2012,07,26,06,04,11.80
2012,07,26,06,05,11.90
2012,07,26,06,06,11.90
2012,07,26,06,07,11.90
2012,07,26,06,08,11.90
2012,07,26,06,09,11.90
2012,07,26,06,10,11.90
2012,07,26,06,11,11.90
2012,07,26,06,12,12.00
2012,07,26,06,13,12.00
2012,07,26,06,14,12.00
2012,07,26,06,15,12.10
2012,07,26,06,16,12.10
2012,07,26,06,17,12.20
2012,07,26,06,18,12.20
2012,07,26,06,19,12.20
2012,07,26,06,20,12.20
2012,07,26,06,21,12.30
2012,07,26,06,22,12.30
2012,07,26,06,23,12.30
2012,07,26,06,24,12.40
2012,07,26,06,25,12.40
2012,07,26,06,26,12.50
2012,07,26,06,27,12.50
2012,07,26,06,28,12.60
2012,07,26,06,29,12.60
2012,07,26,06,30,12.70
2012,07,26,06,31,12.70
2012,07,26,06,32,12.80
2012,07,26,06,33,12.80
2012,07,26,06,34,12.80
2012,07,26,06,35,12.90
2012,07,26,06,36,12.90
2012,07,26,06,37,13.00
2012,07,26,06,38,13.10
2012,07,26,06,39,13.10
2012,07,26,06,40,13.10
2012,07,26,06,41,13.10
2012,07,26,06,42,13.10
2012,07,26,06,43,13.20
2012,07,26,06,44,13.20
2012,07,26,06,45,13.20
2012,07,26,06,46,13.20
2012,07,26,06,47,13.20
2012,07,26,06,48,13.10
2012,07,26,06,49,13.10
2012,07,26,06,50,13.10
2012,07,26,06,51,13.10
2012,07,26,06,52,13.00
2012,07,26,06,53,13.00
2012,07,26,06,54,13.00
2012,07,26,06,55,13.00
2012,07,26,06,56,13.00
2012,07,26,06,57,13.00
2012,07,26,06,58,13.00
2012,07,26,06,59,13.00
2012,07,26,07,00,13.00
2012,07,26,07,01,13.00
2012,07,26,07,02,13.10
2012,07,26,07,03,13.10
2012,07,26,07,04,13.10
2012,07,26,07,05,13.20
2012,07,26,07,06,13.20
2012,07,26,07,07,13.30
2012,07,26,07,08,13.30
2012,07,26,07,09,13.40
2012,07,26,07,10,13.40
2012,07,26,07,11,13.50
2012,07,26,07,12,13.60
2012,07,26,07,13,13.60
2012,07,26,07,14,13.70
2012,07,26,07,15,13.70
2012,07,26,07,16,13.70
2012,07,26,07,17,13.80
2012,07,26,07,18,13.80
2012,07,26,07,19,13.80
2012,07,26,07,20,13.80
2012,07,26,07,21,13.80
2012,07,26,07,22,13.80
2012,07,26,07,23,13.80
2012,07,26,07,24,13.80
2012,07,26,07,25,13.90
2012,07,26,07,26,14.00
2012,07,26,07,27,14.10
2012,07,26,07,28,14.10
2012,07,26,07,29,14.20
2012,07,26,07,30,14.30
2012,07,26,07,31,14.30
2012,07,26,07,32,14.30
2012,07,26,07,33,14.30
2012,07,26,07,34,14.30
2012,07,26,07,35,14.30
2012,07,26,07,36,14.40
2012,07,26,07,37,14.40
2012,07,26,07,38,14.50
2012,07,26,07,39,14.50
2012,07,26,07,40,14.60
2012,07,26,07,41,14.60
2012,07,26,07,42,14.60
2012,07,26,07,43,14.60
2012,07,26,07,44,14.70
2012,07,26,07,45,14.70
2012,07,26,07,46,14.70
2012,07,26,07,47,14.70
2012,07,26,07,48,14.80
2012,07,26,07,49,14.80
2012,07,26,07,50,14.80
2012,07,26,07,51,14.80
2012,07,26,07,52,14.80
2012,07,26,07,53,14.80
2012,07,26,07,54,14.70
2012,07,26,07,55,14.70
2012,07,26,07,56,14.70
2012,07,26,07,57,14.60
2012,07,26,07,58,14.60
2012,07,26,07,59,14.60
2012,07,26,08,00,14.60
2012,07,26,08,01,14.60
2012,07,26,08,02,14.60
2012,07,26,08,03,14.60
2012,07,26,08,04,14.60
2012,07,26,08,05,14.60
2012,07,26,08,06,14.60
2012,07,26,08,07,14.70
2012,07,26,08,08,14.80
2012,07,26,08,09,14.80
2012,07,26,08,10,14.80
2012,07,26,08,11,14.90
2012,07,26,08,12,14.90
2012,07,26,08,13,15.00
2012,07,26,08,14,15.00
2012,07,26,08,15,15.10
2012,07,26,08,16,15.20
2012,07,26,08,17,15.20
2012,07,26,08,18,15.30
2012,07,26,08,19,15.30
2012,07,26,08,20,15.30
2012,07,26,08,21,15.40
2012,07,26,08,22,15.50
2012,07,26,08,23,15.60
2012,07,26,08,24,15.60
2012,07,26,08,25,15.70
2012,07,26,08,26,15.80
2012,07,26,08,27,15.80
2012,07,26,08,28,15.90
2012,07,26,08,29,15.90
2012,07,26,08,30,15.90
2012,07,26,08,31,15.90
2012,07,26,08,32,15.90
2012,07,26,08,33,15.90
2012,07,26,08,34,16.00
2012,07,26,08,35,16.10
2012,07,26,08,36,16.10
2012,07,26,08,37,16.10
2012,07,26,08,38,16.20
2012,07,26,08,39,16.20
2012,07,26,08,40,16.20
2012,07,26,08,41,16.10
2012,07,26,08,42,16.20
2012,07,26,08,43,16.10
2012,07,26,08,44,16.10
2012,07,26,08,45,16.10
2012,07,26,08,46,16.10
2012,07,26,08,47,16.00
2012,07,26,08,48,16.00
2012,07,26,08,49,16.10
2012,07,26,08,50,16.20
2012,07,26,08,51,16.20
2012,07,26,08,52,16.20
2012,07,26,08,53,16.30
2012,07,26,08,54,16.30
2012,07,26,08,55,16.30
2012,07,26,08,56,16.30
2012,07,26,08,57,16.30
2012,07,26,08,58,16.40
2012,07,26,08,59,16.40
2012,07,26,09,00,16.40
2012,07,26,09,01,16.40
2012,07,26,09,02,16.50
2012,07,26,09,03,16.50
2012,07,26,09,04,16.60
2012,07,26,09,05,16.70
2012,07,26,09,06,16.70
2012,07,26,09,07,16.80
2012,07,26,09,08,16.80
2012,07,26,09,09,16.90
2012,07,26,09,10,16.90
2012,07,26,09,11,17.00
2012,07,26,09,12,17.00
2012,07,26,09,13,17.10
2012,07,26,09,14,17.20
2012,07,26,09,15,17.20
2012,07,26,09,16,17.20
2012,07,26,09,17,17.20
2012,07,26,09,18,17.20
2012,07,26,09,19,17.20
2012,07,26,09,20,17.30
2012,07,26,09,21,17.40
2012,07,26,09,22,17.40
2012,07,26,09,23,17.40
2012,07,26,09,24,17.40
2012,07,26,09,25,17.40
2012,07,26,09,26,17.40
2012,07,26,09,27,17.40
2012,07,26,09,28,17.40
2012,07,26,09,29,17.30
2012,07,26,09,30,17.40
2012,07,26,09,31,17.40
2012,07,26,09,32,17.40
2012,07,26,09,33,17.40
2012,07,26,09,34,17.40
2012,07,26,09,35,17.40
2012,07,26,09,36,17.40
2012,07,26,09,37,17.40
2012,07,26,09,38,17.40
2012,07,26,09,39,17.50
2012,07,26,09,40,17.50
2012,07,26,09,41,17.60
2012,07,26,09,42,17.60
2012,07,26,09,43,17.60
2012,07,26,09,44,17.70
2012,07,26,09,45,17.80
2012,07,26,09,46,17.90
2012,07,26,09,47,18.00
2012,07,26,09,48,18.10
2012,07,26,09,49,18.00
2012,07,26,09,50,18.00
2012,07,26,09,51,17.90
2012,07,26,09,52,17.90
2012,07,26,09,53,18.00
2012,07,26,09,54,18.10
2012,07,26,09,55,18.20
2012,07,26,09,56,18.20
2012,07,26,09,57,18.20
2012,07,26,09,58,18.20
2012,07,26,09,59,18.20
2012,07,26,10,00,18.30
2012,07,26,10,01,18.40
2012,07,26,10,02,18.40
2012,07,26,10,03,18.30
2012,07,26,10,04,18.30
2012,07,26,10,05,18.30
2012,07,26,10,06,18.40
2012,07,26,10,07,18.40
2012,07,26,10,08,18.50
2012,07,26,10,09,18.50
2012,07,26,10,10,18.50
2012,07,26,10,11,18.50
2012,07,26,10,12,18.50
2012,07,26,10,13,18.50
2012,07,26,10,14,18.40
2012,07,26,10,15,18.50
2012,07,26,10,16,18.50
2012,07,26,10,17,18.50
2012,07,26,10,18,18.40
2012,07,26,10,19,18.50
2012,07,26,10,20,18.50
2012,07,26,10,21,18.60
2012,07,26,10,22,18.50
2012,07,26,10,23,18.50
2012,07,26,10,24,18.50
2012,07,26,10,25,18.30
2012,07,26,10,26,18.30
2012,07,26,10,27,18.30
2012,07,26,10,28,18.30
2012,07,26,10,29,18.50
2012,07,26,10,30,18.60
2012,07,26,10,31,18.50
2012,07,26,10,32,18.50
2012,07,26,10,33,18.40
2012,07,26,10,34,18.40
2012,07,26,10,35,18.40
2012,07,26,10,36,18.40
2012,07,26,10,37,18.40
2012,07,26,10,38,18.50
2012,07,26,10,39,18.50
2012,07,26,10,40,18.40
2012,07,26,10,41,18.30
2012,07,26,10,42,18.20
2012,07,26,10,43,18.10
2012,07,26,10,44,17.90
2012,07,26,10,45,17.80
2012,07,26,10,46,17.70
2012,07,26,10,47,17.60
2012,07,26,10,48,17.60
2012,07,26,10,49,17.50
2012,07,26,10,50,17.70
2012,07,26,10,51,17.90
2012,07,26,10,52,18.10
2012,07,26,10,53,18.20
2012,07,26,10,54,18.20
2012,07,26,10,55,18.10
2012,07,26,10,56,18.00
2012,07,26,10,57,17.90
2012,07,26,10,58,18.00
2012,07,26,10,59,18.00
2012,07,26,11,00,17.90
2012,07,26,11,01,17.80
2012,07,26,11,02,17.90
2012,07,26,11,03,18.10
2012,07,26,11,04,18.10
2012,07,26,11,05,18.10
2012,07,26,11,06,18.20
2012,07,26,11,07,18.40
2012,07,26,11,08,18.40
2012,07,26,11,09,18.30
2012,07,26,11,10,18.10
2012,07,26,11,11,18.20
2012,07,26,11,12,18.20
2012,07,26,11,13,18.30
2012,07,26,11,14,18.30
2012,07,26,11,15,18.40
2012,07,26,11,16,18.50
2012,07,26,11,17,18.60
2012,07,26,11,18,18.70
2012,07,26,11,19,18.70
2012,07,26,11,20,18.70
2012,07,26,11,21,18.70
2012,07,26,11,22,18.80
2012,07,26,11,23,18.90
2012,07,26,11,24,19.00
2012,07,26,11,25,19.00
2012,07,26,11,26,19.00
2012,07,26,11,27,19.00
2012,07,26,11,28,19.10
2012,07,26,11,29,19.30
2012,07,26,11,30,19.40
2012,07,26,11,31,19.60
2012,07,26,11,32,19.70
2012,07,26,11,33,19.80
2012,07,26,11,34,19.90
2012,07,26,11,35,19.90
2012,07,26,11,36,19.80
2012,07,26,11,37,19.60
2012,07,26,11,38,19.60
2012,07,26,11,39,19.60
2012,07,26,11,40,19.70
2012,07,26,11,41,19.80
2012,07,26,11,42,19.90
2012,07,26,11,43,19.90
2012,07,26,11,44,19.80
2012,07,26,11,45,19.90
2012,07,26,11,46,19.90
2012,07,26,11,47,19.90
2012,07,26,11,48,19.90
2012,07,26,11,49,19.80
2012,07,26,11,50,19.90
2012,07,26,11,51,20.00
2012,07,26,11,52,20.00
2012,07,26,11,53,19.90
2012,07,26,11,54,19.70
2012,07,26,11,55,19.60
2012,07,26,11,56,19.50
2012,07,26,11,57,19.40
2012,07,26,11,58,19.50
2012,07,26,11,59,19.50
2012,07,26,12,00,19.70
2012,07,26,12,01,19.90
2012,07,26,12,02,20.00
2012,07,26,12,03,20.00
2012,07,26,12,04,20.20
2012,07,26,12,05,20.30
2012,07,26,12,06,20.50
2012,07,26,12,07,20.50
2012,07,26,12,08,20.40
2012,07,26,12,09,20.20
2012,07,26,12,10,20.20
2012,07,26,12,11,20.20
2012,07,26,12,12,20.20
2012,07,26,12,13,20.20
2012,07,26,12,14,20.20
2012,07,26,12,15,20.40
2012,07,26,12,16,20.50
2012,07,26,12,17,20.50
2012,07,26,12,18,20.40
2012,07,26,12,19,20.40
2012,07,26,12,20,20.50
2012,07,26,12,21,20.50
2012,07,26,12,22,20.40
2012,07,26,12,23,20.50
2012,07,26,12,24,20.60
2012,07,26,12,25,20.90
2012,07,26,12,26,21.10
2012,07,26,12,27,21.10
2012,07,26,12,28,21.00
2012,07,26,12,29,20.90
2012,07,26,12,30,20.80
2012,07,26,12,31,20.80
2012,07,26,12,32,20.80
2012,07,26,12,33,21.00
2012,07,26,12,34,21.10
2012,07,26,12,35,21.10
2012,07,26,12,36,21.20
2012,07,26,12,37,21.30
2012,07,26,12,38,21.20
2012,07,26,12,39,21.20
2012,07,26,12,40,21.30
2012,07,26,12,41,21.40
2012,07,26,12,42,21.40
2012,07,26,12,43,21.60
2012,07,26,12,44,21.80
2012,07,26,12,45,21.70
2012,07,26,12,46,21.60
2012,07,26,12,47,21.60
2012,07,26,12,48,21.60
2012,07,26,12,49,21.40
2012,07,26,12,50,21.30
2012,07,26,12,51,21.20
2012,07,26,12,52,21.30
2012,07,26,12,53,21.40
2012,07,26,12,54,21.60
2012,07,26,12,55,21.80
2012,07,26,12,56,21.80
2012,07,26,12,57,21.60
2012,07,26,12,58,21.50
2012,07,26,12,59,21.60
2012,07,26,13,00,21.80
2012,07,26,13,01,21.90
2012,07,26,13,02,22.10
2012,07,26,13,03,22.30
2012,07,26,13,04,22.50
2012,07,26,13,05,22.50
2012,07,26,13,06,22.40
2012,07,26,13,07,22.40
2012,07,26,13,08,22.20
2012,07,26,13,09,22.10
2012,07,26,13,10,22.00
2012,07,26,13,11,22.00
2012,07,26,13,12,22.00
2012,07,26,13,13,22.00
2012,07,26,13,14,22.10
2012,07,26,13,15,22.00
2012,07,26,13,16,21.90
2012,07,26,13,17,21.90
2012,07,26,13,18,22.00
2012,07,26,13,19,22.10
2012,07,26,13,20,22.20
2012,07,26,13,21,22.20
2012,07,26,13,22,22.30
2012,07,26,13,23,22.50
2012,07,26,13,24,22.60
2012,07,26,13,25,22.60
2012,07,26,13,26,22.60
2012,07,26,13,27,22.50
2012,07,26,13,28,22.50
2012,07,26,13,29,22.60
2012,07,26,13,30,22.60
2012,07,26,13,31,22.50
2012,07,26,13,32,22.50
2012,07,26,13,33,22.40
2012,07,26,13,34,22.30
2012,07,26,13,35,22.20
2012,07,26,13,36,22.10
2012,07,26,13,37,22.10
2012,07,26,13,38,22.10
2012,07,26,13,39,22.40
2012,07,26,13,40,22.60
2012,07,26,13,41,22.70
2012,07,26,13,42,22.80
2012,07,26,13,43,22.90
2012,07,26,13,44,22.90
2012,07,26,13,45,22.80
2012,07,26,13,46,22.70
2012,07,26,13,47,22.70
2012,07,26,13,48,22.70
2012,07,26,13,49,22.80
2012,07,26,13,50,22.90
2012,07,26,13,51,22.90
2012,07,26,13,52,22.80
2012,07,26,13,53,22.70
2012,07,26,13,54,22.60
2012,07,26,13,55,22.70
2012,07,26,13,56,22.80
2012,07,26,13,57,22.80
2012,07,26,13,58,22.80
2012,07,26,13,59,22.80
2012,07,26,14,00,22.80
2012,07,26,14,01,22.80
2012,07,26,14,02,22.80
2012,07,26,14,03,22.80
2012,07,26,14,04,22.80
2012,07,26,14,05,22.90
2012,07,26,14,06,23.00
2012,07,26,14,07,23.20
2012,07,26,14,08,23.30
2012,07,26,14,09,23.30
2012,07,26,14,10,23.30
2012,07,26,14,11,23.20
2012,07,26,14,12,23.10
2012,07,26,14,13,22.90
2012,07,26,14,14,22.70
2012,07,26,14,15,22.70
2012,07,26,14,16,22.70
2012,07,26,14,17,22.70
2012,07,26,14,18,22.80
2012,07,26,14,19,22.90
2012,07,26,14,20,22.80
2012,07,26,14,21,22.80
2012,07,26,14,22,22.70
2012,07,26,14,23,22.70
2012,07,26,14,24,22.70
2012,07,26,14,25,22.80
2012,07,26,14,26,22.80
2012,07,26,14,27,22.80
2012,07,26,14,28,22.80
2012,07,26,14,29,22.80
2012,07,26,14,30,22.80
2012,07,26,14,31,22.90
2012,07,26,14,32,23.10
2012,07,26,14,33,23.20
2012,07,26,14,34,23.30
2012,07,26,14,35,23.20
2012,07,26,14,36,23.10
2012,07,26,14,37,22.90
2012,07,26,14,38,22.90
2012,07,26,14,39,22.80
2012,07,26,14,40,22.70
2012,07,26,14,41,22.60
2012,07,26,14,42,22.60
2012,07,26,14,43,22.60
2012,07,26,14,44,22.60
2012,07,26,14,45,22.70
2012,07,26,14,46,22.70
2012,07,26,14,47,22.70
2012,07,26,14,48,22.80
2012,07,26,14,49,22.80
2012,07,26,14,50,22.80
2012,07,26,14,51,22.80
2012,07,26,14,52,22.70
2012,07,26,14,53,22.70
2012,07,26,14,54,22.70
2012,07,26,14,55,22.70
2012,07,26,14,56,22.60
2012,07,26,14,57,22.50
2012,07,26,14,58,22.50
2012,07,26,14,59,22.50
2012,07,26,15,00,22.50
2012,07,26,15,01,22.50
2012,07,26,15,02,22.50
2012,07,26,15,03,22.60
2012,07,26,15,04,22.80
2012,07,26,15,05,22.80
2012,07,26,15,06,22.90
2012,07,26,15,07,23.00
2012,07,26,15,08,23.10
2012,07,26,15,09,23.30
2012,07,26,15,10,23.50
2012,07,26,15,11,23.70
2012,07,26,15,12,23.60
2012,07,26,15,13,23.50
2012,07,26,15,14,23.30
2012,07,26,15,15,23.20
2012,07,26,15,16,23.10
2012,07,26,15,17,23.00
2012,07,26,15,18,22.90
2012,07,26,15,19,22.90
2012,07,26,15,20,22.90
2012,07,26,15,21,23.00
2012,07,26,15,22,23.10
2012,07,26,15,23,23.20
2012,07,26,15,24,23.20
2012,07,26,15,25,23.20
2012,07,26,15,26,23.20
2012,07,26,15,27,23.10
2012,07,26,15,28,23.20
2012,07,26,15,29,23.30
2012,07,26,15,30,23.40
2012,07,26,15,31,23.40
2012,07,26,15,32,23.40
2012,07,26,15,33,23.30
2012,07,26,15,34,23.30
2012,07,26,15,35,23.40
2012,07,26,15,36,23.40
2012,07,26,15,37,23.50
2012,07,26,15,38,23.60
2012,07,26,15,39,23.60
2012,07,26,15,40,23.50
2012,07,26,15,41,23.50
2012,07,26,15,42,23.50
2012,07,26,15,43,23.50
2012,07,26,15,44,23.40
2012,07,26,15,45,23.40
2012,07,26,15,46,23.30
2012,07,26,15,47,23.40
2012,07,26,15,48,23.50
2012,07,26,15,49,23.50
2012,07,26,15,50,23.50
2012,07,26,15,51,23.50
2012,07,26,15,52,23.40
2012,07,26,15,53,23.30
2012,07,26,15,54,23.30
2012,07,26,15,55,23.20
2012,07,26,15,56,23.10
2012,07,26,15,57,23.00
2012,07,26,15,58,23.00
2012,07,26,15,59,23.00
2012,07,26,16,00,23.00
2012,07,26,16,01,22.90
2012,07,26,16,02,22.80
2012,07,26,16,03,22.80
2012,07,26,16,04,22.80
2012,07,26,16,05,22.80
2012,07,26,16,06,22.80
2012,07,26,16,07,22.80
2012,07,26,16,08,22.90
2012,07,26,16,09,22.90
2012,07,26,16,10,22.90
2012,07,26,16,11,22.90
2012,07,26,16,12,22.80
2012,07,26,16,13,22.80
2012,07,26,16,14,22.70
2012,07,26,16,15,22.80
2012,07,26,16,16,22.80
2012,07,26,16,17,22.80
2012,07,26,16,18,22.90
2012,07,26,16,19,22.90
2012,07,26,16,20,22.90
2012,07,26,16,21,22.90
2012,07,26,16,22,22.80
2012,07,26,16,23,22.80
2012,07,26,16,24,22.70
2012,07,26,16,25,22.70
2012,07,26,16,26,22.70
2012,07,26,16,27,22.60
2012,07,26,16,28,22.60
2012,07,26,16,29,22.60
2012,07,26,16,30,22.60
2012,07,26,16,31,22.50
2012,07,26,16,32,22.50
2012,07,26,16,33,22.50
2012,07,26,16,34,22.50
2012,07,26,16,35,22.60
2012,07,26,16,36,22.70
2012,07,26,16,37,22.80
2012,07,26,16,38,22.80
2012,07,26,16,39,22.70
2012,07,26,16,40,22.50
2012,07,26,16,41,22.40
2012,07,26,16,42,22.30
2012,07,26,16,43,22.20
2012,07,26,16,44,22.10
2012,07,26,16,45,22.20
2012,07,26,16,46,22.20
2012,07,26,16,47,22.20
2012,07,26,16,48,22.20
2012,07,26,16,49,22.30
2012,07,26,16,50,22.30
2012,07,26,16,51,22.30
2012,07,26,16,52,22.20
2012,07,26,16,53,22.20
2012,07,26,16,54,22.10
2012,07,26,16,55,22.10
2012,07,26,16,56,22.00
2012,07,26,16,57,21.90
2012,07,26,16,58,21.90
2012,07,26,16,59,22.00
2012,07,26,17,00,22.10
2012,07,26,17,01,22.20
2012,07,26,17,02,22.30
2012,07,26,17,03,22.30
2012,07,26,17,04,22.40
2012,07,26,17,05,22.40
2012,07,26,17,06,22.50
2012,07,26,17,07,22.50
2012,07,26,17,08,22.50
2012,07,26,17,09,22.60
2012,07,26,17,10,22.60
2012,07,26,17,11,22.70
2012,07,26,17,12,22.70
2012,07,26,17,13,22.80
2012,07,26,17,14,22.80
2012,07,26,17,15,22.80
2012,07,26,17,16,22.90
2012,07,26,17,17,22.90
2012,07,26,17,18,23.00
2012,07,26,17,19,23.10